Starlink 3591

operational
NORAD ID: 51870 Int'l Des: 2022-022 Owner: SPXS Country: US Constellation: starlink
LEOCIRCULAR

关于 Starlink 3591

正在加载描述...

实时位置

正在加载3D地球...

即将过境

高度历史

Altitude vs Time

uPlot chart will show altitude changes over time

两行轨道根数

1 51870U 22022U 25350.49415510 .00000334 00000-0 39034-4 0 9996
2 51870 53.2182 22.6000 0001244 94.0607 266.0528 15.08850805210609
Epoch: Dec 16, 2025 • Age: 19 hours

当前状态

高度 552.5 km
速度 7.58 km/s
星下点 -37.27°S, 157.65°E
发射日期 Mar 3, 2022
运行时间 3.7 years
类型 internet

技术详情

分类 Payload
质量 297.00 kg
干质量 275.00 kg
总质量 297.00 kg
长度 0.20 m
直径 2.80 m
跨度 9.00 m
形状 Box + pan
制造商 SPXS
平台类型 Starlink
阶段状态 In Orbit
所有者/国家 SPXS/US

大型星座

Loading constellations...